User: anonymous   Login
Location: Unspecified
(0.0000°N, 0.0000°E)
Time: 11:20:07
(UTC+00:00)
Language:

AO-Echo - Orbit

View from above orbital plane
View from above orbital plane
View from above satellite
View from above satellite

Ground track
Ground track

The orbit data is extracted from the following two-line orbital elements,

1 28375U 04025K   21170.77120114  .00000004  00000-0  14680-4 0  9997
2 28375  98.4604 103.5872 0082040 194.7884 165.0905 14.42008983892676
Epoch (UTC): 19 June 2021 18:30:31
Eccentricity: 0.0082040
inclination: 98.4604°
perigee height: 693 km
apogee height: 810 km
right ascension of ascending node: 103.5872°
argument of perigee: 194.7884°
revolutions per day: 14.42008983
mean anomaly at epoch: 165.0905°
orbit number at epoch: 89267

The dashed part of the orbit path shows where the satellite is in the earth's shadow,  

DLR